User: anonymous   Login
Location: Chrome
(40.5765°N, 74.2163°W)
Time: 01:19:06
(UTC+00:00)
Language:

Cosmos 1331 Rocket - Orbit

View from above orbital plane
View from above orbital plane
View from above satellite
View from above satellite

Ground track
Ground track

The orbit data is extracted from the following two-line orbital elements,

1 13028U 82001B   20047.38768274 -.00000058  00000-0 -10416-4 0  9994
2 13028  74.0401  33.9317 0020920 235.6374 124.2802 14.38393581997202
Epoch (UTC): 16 February 2020 09:18:15
Eccentricity: 0.0020920
inclination: 74.0401°
perigee height: 749 km
apogee height: 779 km
right ascension of ascending node: 33.9317°
argument of perigee: 235.6374°
revolutions per day: 14.38393581
mean anomaly at epoch: 124.2802°
orbit number at epoch: 99720

The dashed part of the orbit path shows where the satellite is in the earth's shadow,  

DLR